Location: Azul
(36.7830°S, 59.8500°W)
Time: 11:44:36

ISS - Pass Details

Date: 17 March 2018
Orbit: 403 x 406 km, 51.6° (Epoch: 17 March)

Event Time Altitude Azimuth Distance (km) Brightness Sun altitude
Rises 19:43:39 0° 251° (WSW) 2,348 2.1 -6.5°
Reaches altitude 10° 19:46:51 10° 284° (WNW) 1,477 0.3 -7.2°
Maximum altitude 19:48:06 12° 307° (NW) 1,372 -0.4 -7.4°
Drops below altitude 10° 19:49:22 10° 329° (NNW) 1,469 -0.7 -7.7°
Sets 19:52:32 0° 3° (N) 2,318 -0.1 -8.3°
